TimeCST,TemperatureF,Dew PointF,Humidity,Sea Level PressureIn,VisibilityMPH,Wind Direction,Wind SpeedMPH,Gust SpeedMPH,PrecipitationIn,Events,Conditions,WindDirDegrees,DateUTC
12:54 AM,64.0,55.9,75,29.90,10.0,South,11.5,-,N/A,,Scattered Clouds,190,2012-12-02 06:54:00
1:54 AM,64.9,57.0,75,29.90,10.0,SSW,13.8,-,N/A,,Mostly Cloudy,200,2012-12-02 07:54:00
2:54 AM,64.0,57.0,78,29.92,10.0,SSW,9.2,-,N/A,,Overcast,210,2012-12-02 08:54:00
3:54 AM,62.1,57.0,84,29.93,10.0,SSW,4.6,-,N/A,,Overcast,210,2012-12-02 09:54:00
4:54 AM,59.0,55.0,87,29.93,10.0,SW,6.9,-,N/A,,Scattered Clouds,230,2012-12-02 10:54:00
5:54 AM,59.0,55.9,90,29.96,10.0,West,6.9,-,N/A,,Partly Cloudy,270,2012-12-02 11:54:00
6:54 AM,55.9,52.0,87,29.99,10.0,WNW,4.6,-,N/A,,Clear,290,2012-12-02 12:54:00
7:54 AM,55.9,51.1,84,30.01,10.0,West,3.5,-,N/A,,Clear,260,2012-12-02 13:54:00
8:54 AM,61.0,53.1,75,30.02,10.0,WNW,4.6,-,N/A,,Clear,290,2012-12-02 14:54:00
9:54 AM,64.0,53.1,67,30.03,10.0,SW,4.6,-,N/A,,Clear,230,2012-12-02 15:54:00
10:54 AM,66.9,48.0,51,30.01,10.0,WSW,10.4,-,N/A,,Clear,240,2012-12-02 16:54:00
11:54 AM,69.1,52.0,54,30.00,10.0,WSW,5.8,-,N/A,,Clear,240,2012-12-02 17:54:00
12:54 PM,71.1,54.0,55,29.98,10.0,West,5.8,-,N/A,,Clear,270,2012-12-02 18:54:00
1:54 PM,71.1,55.9,59,29.96,10.0,WSW,9.2,-,N/A,,Clear,240,2012-12-02 19:54:00
2:54 PM,70.0,57.0,63,29.96,10.0,SW,3.5,-,N/A,,Clear,230,2012-12-02 20:54:00
3:54 PM,66.9,55.9,68,29.96,10.0,SSW,6.9,-,N/A,,Clear,210,2012-12-02 21:54:00
4:54 PM,64.0,55.0,73,29.96,10.0,SSW,3.5,-,N/A,,Clear,200,2012-12-02 22:54:00
5:54 PM,64.0,55.0,73,29.96,10.0,SSE,4.6,-,N/A,,Clear,150,2012-12-02 23:54:00
6:54 PM,62.1,55.0,78,29.96,10.0,SE,5.8,-,N/A,,Clear,130,2012-12-03 00:54:00
7:54 PM,61.0,55.0,81,29.96,10.0,ESE,5.8,-,N/A,,Clear,120,2012-12-03 01:54:00
8:54 PM,60.1,55.0,83,29.96,10.0,ESE,6.9,-,N/A,,Mostly Cloudy,110,2012-12-03 02:54:00
9:54 PM,60.1,55.0,83,29.95,10.0,ESE,8.1,-,N/A,,Scattered Clouds,120,2012-12-03 03:54:00
10:54 PM,59.0,54.0,83,29.95,10.0,SSE,8.1,-,N/A,,Scattered Clouds,160,2012-12-03 04:54:00
11:54 PM,60.1,55.0,83,29.95,10.0,South,9.2,-,N/A,,Scattered Clouds,170,2012-12-03 05:54:00